1487368800.21,1881,12.75,73228.3,-11.61,-35.77,-38.97,0,*54
1487368801.44,1882,12.75,73228.0,-11.61,-35.77,-39.15,0,*5C
1487368802.68,1883,12.75,73228.0,-11.61,-35.89,-39.15,0,*5C
1487368803.9,1884,12.75,73224.8,-11.61,-35.89,-39.23,0,*5E
1487368805.14,1885,12.75,73226.8,-11.61,-35.77,-39.03,0,*5C
1487368806.36,1886,12.75,73226.8,-11.61,-35.89,-39.03,0,*5E
1487368807.62,1887,12.75,73224.8,-11.61,-35.95,-39.23,0,*50
1487368808.86,1888,12.75,73226.5,-11.59,-36.01,-39.09,0,*52
1487368810.09,1889,12.75,73226.3,-11.59,-35.71,-39.09,0,*57
1487368811.32,1890,12.75,73224.0,-11.59,-35.71,-38.97,0,*59
1487368812.55,1891,12.75,73228.3,-11.59,-35.71,-39.09,0,*5E
1487368813.78,1892,12.75,73230.0,-11.61,-35.77,-39.03,0,*5A
1487368815.07,1893,12.75,73230.0,-11.59,-35.83,-39.15,0,*5C
1487368816.33,1894,12.75,73230.3,-11.59,-35.89,-39.23,0,*54
1487368817.59,1895,12.75,73224.8,-11.59,-35.83,-39.09,0,*57
1487368818.84,1896,12.75,73228.8,-11.61,-35.95,-39.03,0,*52
1487368820.1,1897,12.75,73230.3,-11.59,-36.07,-39.29,0,*58
1487368821.36,1898,12.75,73228.5,-11.59,-35.83,-38.97,0,*5C
1487368822.63,1899,12.75,73232.3,-11.59,-35.65,-38.79,0,*55
1487368823.91,1900,12.75,73232.0,-11.59,-35.65,-38.79,0,*54
1487368825.17,1901,12.75,73228.5,-11.59,-36.25,-39.47,0,*5E
1487368826.39,1902,12.75,73232.8,-11.59,-36.19,-39.47,0,*52
1487368827.65,1903,12.75,73232.0,-11.59,-36.25,-39.47,0,*5C
1487368828.9,1904,12.75,73230.8,-11.59,-36.07,-39.29,0,*53
1487368830.13,1905,12.75,73234.5,-11.59,-36.19,-39.35,0,*50
1487368831.35,1906,12.75,73232.5,-11.61,-36.31,-39.53,0,*52
1487368832.64,1907,12.75,73234.3,-11.59,-35.83,-38.91,0,*5D
1487368833.9,1908,12.75,73234.0,-11.59,-36.19,-39.15,0,*5F
1487368835.12,1909,12.75,73232.0,-11.59,-36.19,-39.35,0,*5C
1487368836.37,1910,12.75,73234.3,-11.59,-36.19,-39.29,0,*59
1487368837.63,1911,12.75,73234.8,-11.59,-36.07,-39.15,0,*58
1487368838.87,1912,12.75,73234.0,-11.59,-35.89,-39.09,0,*53
1487368840.1,1913,12.75,73234.8,-11.59,-36.31,-39.47,0,*58
1487368841.32,1914,12.75,73232.5,-11.59,-36.43,-39.47,0,*5A
1487368842.58,1915,12.75,73234.3,-11.59,-36.19,-39.29,0,*5C
1487368843.86,1916,12.75,73232.8,-11.59,-35.83,-38.91,0,*5D
1487368845.12,1917,12.75,73230.8,-11.59,-36.07,-39.29,0,*51
1487368846.37,1918,12.75,73230.8,-11.61,-36.37,-39.41,0,*58
1487368847.6,1919,12.75,73228.8,-11.59,-36.31,-39.47,0,*52
1487368848.86,1920,12.75,73230.3,-11.59,-36.31,-39.29,0,*50
1487368850.08,1921,12.75,73230.3,-11.59,-36.31,-39.35,0,*5C
1487368851.31,1922,12.75,73230.0,-11.59,-36.43,-39.35,0,*5A
1487368852.55,1923,12.75,73230.3,-11.61,-36.55,-39.59,0,*5D
1487368853.8,1924,12.75,73232.0,-11.59,-36.31,-39.53,0,*59
1487368855.03,1925,12.75,73228.3,-11.59,-36.43,-39.47,0,*58
1487368856.31,1926,12.75,73228.5,-11.59,-36.25,-39.29,0,*53
1487368857.54,1927,12.75,73228.8,-11.59,-36.43,-39.35,0,*5F
1487368858.77,1928,12.75,73232.8,-11.61,-36.67,-39.53,0,*5D
1487368860.02,1929,12.75,73232.3,-11.61,-35.95,-39.15,0,*50
1487368861.28,1930,12.75,73228.5,-11.59,-36.19,-39.15,0,*54
1487368862.51,1931,12.75,73230.0,-11.59,-36.31,-39.47,0,*58
1487368863.74,1932,12.69,73228.8,-11.59,-36.43,-39.47,0,*5E
1487368864.94,1933,12.75,73228.8,-11.61,-36.31,-39.35,0,*54
1487368866.19,1934,12.75,73234.5,-11.59,-36.49,-39.47,0,*52
1487368867.42,1935,12.75,73228.0,-11.61,-36.73,-39.71,0,*54
1487368868.68,1936,12.75,73232.0,-11.59,-36.67,-39.53,0,*59
1487368869.93,1937,12.75,73228.5,-11.61,-36.49,-39.53,0,*5F
1487368871.16,1938,12.75,73230.0,-11.61,-36.31,-39.29,0,*52
1487368872.39,1939,12.75,73234.0,-11.59,-36.31,-39.35,0,*55
1487368873.61,1940,12.75,73228.8,-11.61,-36.49,-39.35,0,*5F
1487368874.87,1941,12.75,73230.5,-11.59,-36.19,-39.15,0,*52
1487368876.1,1942,12.75,73228.8,-11.61,-36.55,-39.59,0,*5A
1487368877.39,1943,12.75,73228.0,-11.59,-36.49,-39.59,0,*5D
1487368878.63,1944,12.75,73228.0,-11.61,-36.73,-39.79,0,*5A
1487368879.86,1945,12.75,73228.5,-11.61,-36.73,-39.71,0,*53
1487368881.1,1946,12.75,73228.5,-11.61,-36.73,-39.71,0,*50
1487368882.33,1947,12.75,73226.0,-11.61,-36.73,-39.71,0,*51
1487368883.57,1948,12.75,73226.8,-11.61,-36.73,-39.59,0,*54
1487368884.82,1949,12.69,73224.8,-11.61,-36.49,-39.41,0,*55
1487368886.08,1950,12.75,73230.3,-11.61,-36.49,-39.41,0,*5D
1487368887.34,1951,12.75,73228.3,-11.65,-36.61,-39.59,0,*5B
1487368888.58,1952,12.75,73226.5,-11.65,-36.61,-39.65,0,*57
1487368889.84,1953,12.75,73228.8,-11.65,-36.61,-39.59,0,*59
1487368891.05,1954,12.75,73226.0,-11.65,-36.73,-39.65,0,*52
1487368892.27,1955,12.75,73226.5,-11.65,-36.73,-39.65,0,*53
1487368893.51,1956,12.75,73234.3,-11.65,-36.79,-39.65,0,*5A
1487368894.73,1957,12.75,73228.8,-11.65,-36.61,-39.47,0,*52
1487368895.99,1958,12.75,73230.3,-11.65,-36.37,-39.29,0,*56
1487368897.21,1959,12.75,73230.5,-11.65,-36.73,-39.65,0,*5F
1487368898.47,1960,12.75,73228.5,-11.67,-36.79,-39.65,0,*5D
1487368899.73,1961,12.75,73228.5,-11.65,-36.61,-39.59,0,*58
1487368900.98,1962,12.75,73230.3,-11.65,-36.37,-39.23,0,*55
1487368902.19,1963,12.75,73232.5,-11.65,-36.43,-39.47,0,*55
1487368903.45,1964,12.75,73234.5,-11.65,-36.37,-39.29,0,*59
1487368904.65,1965,12.75,73228.8,-11.65,-36.43,-39.47,0,*53
1487368905.88,1966,12.75,73232.3,-11.67,-36.55,-39.47,0,*55
1487368907.11,1967,12.75,73234.0,-11.65,-36.43,-39.29,0,*59
1487368908.33,1968,12.75,73232.3,-11.65,-36.55,-39.65,0,*59
1487368909.59,1969,12.75,73232.3,-11.67,-36.79,-39.65,0,*54
1487368910.84,1970,12.75,73228.0,-11.65,-36.37,-39.29,0,*5C
1487368912.1,1971,12.75,73230.5,-11.65,-36.13,-39.03,0,*53
1487368913.3,1972,12.75,73228.3,-11.65,-36.43,-39.47,0,*55
1487368914.5,1973,12.75,73228.8,-11.65,-36.43,-39.47,0,*54
1487368915.77,1974,12.75,73226.8,-11.67,-36.55,-39.59,0,*59
1487368917.01,1975,12.75,73228.3,-11.67,-36.73,-39.65,0,*53
1487368918.25,1976,12.75,73230.0,-11.65,-36.55,-39.59,0,*59
1487368919.51,1977,12.75,73230.8,-11.65,-36.37,-39.59,0,*5C
1487368920.72,1978,12.69,73228.5,-11.65,-36.43,-39.65,0,*5F
1487368921.96,1979,12.75,73230.5,-11.65,-36.61,-39.65,0,*5E
1487368923.19,1980,12.75,73232.0,-11.65,-36.55,-39.41,0,*59
1487368924.4,1981,12.75,73232.0,-11.65,-36.55,-39.47,0,*5E
1487368925.66,1982,12.75,73232.0,-11.65,-36.61,-39.59,0,*55
1487368926.92,1983,12.75,73232.5,-11.67,-36.31,-39.23,0,*5E
1487368928.15,1984,12.75,73230.5,-11.65,-36.01,-39.03,0,*5A
1487368929.36,1985,12.75,73228.8,-11.65,-36.19,-39.09,0,*58
1487368930.59,1986,12.75,73230.0,-11.65,-36.31,-39.41,0,*5D
1487368931.83,1987,12.75,73230.0,-11.65,-36.43,-39.59,0,*50
1487368933.08,1988,12.75,73230.3,-11.67,-36.31,-39.29,0,*5F
1487368934.34,1989,12.75,73228.5,-11.65,-36.37,-39.41,0,*54
1487368935.6,1990,12.75,73232.5,-11.65,-36.61,-39.59,0,*56
1487368936.81,1991,12.75,73232.3,-11.65,-36.43,-39.65,0,*58
1487368938.03,1992,12.75,73228.5,-11.65,-36.55,-39.65,0,*5C
1487368939.27,1993,12.69,73224.8,-11.65,-36.43,-39.59,0,*55
1487368940.48,1994,12.75,73230.8,-11.65,-36.55,-39.65,0,*5A
1487368941.73,1995,12.75,73234.8,-11.61,-36.37,-39.53,0,*5E
1487368942.96,1996,12.75,73228.3,-11.61,-36.55,-39.53,0,*59
1487368944.22,1997,12.75,73232.3,-11.61,-36.49,-39.59,0,*5F
1487368945.48,1998,12.75,73228.3,-11.61,-36.49,-39.59,0,*50
1487368946.74,1999,12.75,73230.5,-11.65,-36.79,-39.79,0,*54
1487368948.0,2000,12.75,73232.3,-11.65,-36.61,-39.59,0,*55
1487368949.24,2001,12.75,73230.5,-11.65,-36.43,-39.59,0,*54
1487368950.45,2002,12.75,73234.8,-11.65,-36.73,-39.65,0,*5B
1487368951.69,2003,12.75,73232.0,-11.65,-36.31,-39.41,0,*5A
1487368952.95,2004,12.75,73232.0,-11.65,-36.79,-39.79,0,*5A
1487368954.17,2005,12.75,73230.5,-11.65,-36.79,-39.85,0,*58
1487368955.41,2006,12.75,73234.5,-11.65,-36.73,-39.79,0,*52
1487368956.65,2007,12.75,73234.5,-11.65,-36.79,-39.85,0,*5A
1487368957.86,2008,12.75,73230.3,-11.65,-36.73,-39.85,0,*5F
1487368959.12,2009,12.75,73230.3,-11.67,-36.73,-39.79,0,*5F
1487368960.35,2010,12.75,73230.8,-11.65,-36.79,-39.85,0,*5C
1487368961.59,2011,12.75,73232.8,-11.65,-36.73,-39.79,0,*54
1487368962.87,2012,12.75,73232.3,-11.67,-36.79,-39.79,0,*5F
1487368964.16,2013,12.75,73232.8,-11.67,-36.61,-39.59,0,*55
1487368965.41,2014,12.75,73232.3,-11.67,-36.31,-39.41,0,*5E
1487368966.69,2015,12.75,73228.8,-11.67,-36.37,-39.41,0,*59
1487368967.93,2016,12.75,73234.0,-11.67,-36.73,-39.65,0,*5C
1487368969.22,2017,12.75,73230.0,-11.67,-36.79,-39.79,0,*5A
1487368970.48,2018,12.75,73232.3,-11.65,-36.79,-39.79,0,*57
1487368971.74,2019,12.75,73234.5,-11.65,-36.79,-39.79,0,*56
1487368972.95,2020,12.75,73234.5,-11.65,-36.73,-39.65,0,*5B
1487368974.21,2021,12.75,73232.8,-11.67,-36.79,-39.65,0,*52
1487368975.46,2022,12.75,73232.5,-11.67,-36.19,-39.23,0,*55
1487368976.7,2023,12.75,73234.3,-11.65,-36.31,-39.23,0,*5C
1487368977.96,2024,12.75,73232.3,-11.67,-36.61,-39.65,0,*5E
1487368979.19,2025,12.75,73232.8,-11.65,-36.37,-39.47,0,*5E
1487368980.42,2026,12.75,73232.0,-11.65,-36.79,-39.65,0,*57
1487368981.66,2027,12.75,73230.3,-11.65,-36.91,-39.85,0,*5E
1487368982.89,2028,12.75,73234.0,-11.67,-36.97,-39.85,0,*55
1487368984.15,2029,12.75,73232.0,-11.65,-37.09,-39.97,0,*53
1487368985.39,2030,12.75,73232.3,-11.67,-36.73,-39.65,0,*58
1487368986.67,2031,12.75,73234.0,-11.67,-36.37,-39.23,0,*5B
1487368987.9,2032,12.75,73234.5,-11.65,-36.61,-39.47,0,*5B
1487368989.16,2033,12.75,73230.8,-11.67,-36.43,-39.41,0,*5E
1487368990.39,2034,12.75,73232.3,-11.65,-36.79,-39.65,0,*54
1487368991.62,2035,12.75,73232.5,-11.67,-36.73,-39.47,0,*5D
1487368992.85,2036,12.75,73238.0,-11.65,-36.61,-39.47,0,*5F
1487368994.06,2037,12.75,73236.0,-11.65,-36.73,-39.47,0,*5D
1487368995.32,2038,12.75,73234.0,-11.67,-36.91,-39.65,0,*5C
1487368996.56,2039,12.75,73232.5,-11.65,-36.97,-39.79,0,*54
1487368997.84,2040,12.75,73232.8,-11.67,-36.79,-39.59,0,*5A
1487368999.1,2041,12.75,73232.8,-11.67,-36.43,-39.23,0,*5F
1487369000.34,2042,12.75,73232.5,-11.67,-36.31,-39.09,0,*51
1487369001.56,2043,12.75,73234.3,-11.65,-36.61,-39.47,0,*5D
1487369002.77,2044,12.75,73234.5,-11.65,-36.55,-39.47,0,*5D
1487369004.0,2045,12.75,73232.8,-11.65,-36.79,-39.47,0,*52
1487369005.23,2046,12.75,73234.5,-11.65,-36.91,-39.65,0,*57
1487369006.44,2047,12.75,73234.0,-11.65,-37.15,-39.85,0,*55
1487369007.67,2048,12.75,73234.5,-11.67,-37.15,-39.85,0,*58
1487369008.91,2049,12.75,73232.5,-11.65,-36.91,-39.65,0,*58
1487369010.15,2050,12.75,73232.5,-11.67,-36.97,-39.85,0,*5A
1487369011.41,2051,12.75,73232.5,-11.67,-36.91,-39.65,0,*53
1487369012.65,2052,12.75,73228.0,-11.67,-36.97,-39.65,0,*56
1487369013.89,2053,12.75,73232.3,-11.65,-36.91,-39.65,0,*53
1487369015.14,2054,12.75,73230.8,-11.65,-36.79,-39.41,0,*54
1487369016.43,2055,12.75,73234.8,-11.67,-36.79,-39.59,0,*5E
1487369017.67,2056,12.75,73232.0,-11.67,-36.97,-39.65,0,*52
1487369018.9,2057,12.75,73232.8,-11.65,-36.73,-39.41,0,*5D
1487369020.14,2058,12.75,73230.8,-11.67,-36.97,-39.65,0,*5C
1487369021.38,2059,12.75,73230.5,-11.65,-37.09,-39.65,0,*59
1487369022.62,2060,12.75,73234.3,-11.67,-36.97,-39.65,0,*57
1487369023.86,2061,12.75,73228.5,-11.67,-36.97,-39.65,0,*56
1487369025.1,2062,12.75,73232.3,-11.65,-37.15,-39.79,0,*51
1487369026.33,2063,12.75,73232.5,-11.67,-37.15,-39.85,0,*51
1487369027.62,2064,12.75,73232.5,-11.67,-36.91,-39.59,0,*5A
1487369028.88,2065,12.75,73234.5,-11.67,-37.09,-39.65,0,*54
1487369030.14,2066,12.75,73238.8,-11.67,-37.15,-39.79,0,*57
1487369031.37,2067,12.75,73234.8,-11.67,-37.33,-39.85,0,*51
1487369032.61,2068,12.75,73234.3,-11.67,-36.97,-39.65,0,*5F
1487369033.87,2069,12.75,73234.8,-11.67,-36.91,-39.47,0,*58
1487369035.13,2070,12.75,73232.3,-11.69,-37.21,-39.71,0,*51
1487369036.36,2071,12.75,73234.5,-11.67,-37.33,-39.85,0,*56
1487369037.63,2072,12.75,73232.8,-11.67,-36.97,-39.79,0,*59
1487369038.87,2073,12.69,73230.8,-11.69,-37.21,-39.85,0,*59
1487369040.13,2074,12.75,73232.8,-11.67,-37.15,-39.79,0,*54
1487369041.34,2075,12.75,73232.8,-11.69,-37.15,-39.85,0,*58
1487369042.55,2076,12.75,73232.8,-11.69,-36.97,-39.65,0,*5E
1487369043.79,2077,12.75,73234.8,-11.69,-36.85,-39.53,0,*59
1487369045.05,2078,12.75,73230.3,-11.67,-37.09,-39.65,0,*58
1487369046.33,2079,12.75,73230.5,-11.67,-36.79,-39.29,0,*57
1487369047.54,2080,12.75,73234.0,-11.69,-37.03,-39.65,0,*5B
1487369048.77,2081,12.75,73230.8,-11.67,-36.97,-39.47,0,*58
1487369050.05,2082,12.75,73230.8,-11.67,-36.79,-39.29,0,*53
1487369051.31,2083,12.75,73232.5,-11.67,-36.97,-39.59,0,*55
1487369052.57,2084,12.75,73230.8,-11.65,-36.91,-39.29,0,*51
1487369053.83,2085,12.75,73232.3,-11.67,-36.97,-39.41,0,*5A
1487369055.09,2086,12.75,73234.5,-11.67,-37.09,-39.65,0,*59
1487369056.36,2087,12.75,73230.3,-11.67,-37.15,-39.59,0,*5A
1487369057.59,2088,12.75,73234.8,-11.65,-37.15,-39.59,0,*57
1487369058.83,2089,12.75,73234.5,-11.67,-37.15,-39.65,0,*5B
1487369060.09,2090,12.75,73234.5,-11.67,-36.97,-39.41,0,*5E
1487369061.34,2091,12.75,73232.0,-11.67,-37.09,-39.47,0,*5F
1487369062.58,2092,12.75,73232.8,-11.67,-37.27,-39.65,0,*50
1487369063.82,2093,12.75,73232.3,-11.67,-37.33,-39.65,0,*54
1487369065.07,2094,12.75,73234.0,-11.67,-37.33,-39.79,0,*5E
1487369066.34,2095,12.75,73232.8,-11.67,-36.97,-39.59,0,*52
1487369067.59,2096,12.75,73232.8,-11.67,-37.09,-39.47,0,*58
1487369068.82,2097,12.69,73232.0,-11.67,-37.15,-39.47,0,*54
1487369070.07,2098,12.75,73232.5,-11.67,-37.09,-39.47,0,*56
1487369071.31,2099,12.75,73234.3,-11.67,-37.15,-39.65,0,*5A
1487369072.57,2100,12.75,73236.5,-11.67,-37.27,-39.59,0,*55
1487369073.84,2101,12.75,73234.3,-11.67,-37.51,-39.65,0,*5A
1487369075.1,2102,12.75,73232.8,-11.67,-37.45,-39.79,0,*51
1487369076.33,2103,12.75,73232.8,-11.69,-37.39,-39.65,0,*58
1487369077.56,2104,12.75,73232.0,-11.69,-37.33,-39.53,0,*50
1487369078.76,2105,12.75,73232.0,-11.69,-37.15,-39.35,0,*55
1487369080.03,2106,12.69,73234.0,-11.69,-37.21,-39.71,0,*51
1487369081.24,2107,12.69,73234.3,-11.69,-37.15,-39.35,0,*57
1487369082.45,2108,12.75,73234.8,-11.69,-36.97,-39.09,0,*5C
1487369083.68,2109,12.75,73232.8,-11.69,-37.03,-39.29,0,*53
1487369084.92,2110,12.75,73234.3,-11.69,-37.03,-39.29,0,*5B
1487369086.14,2111,12.69,73232.5,-11.67,-37.15,-39.47,0,*5B
1487369087.43,2112,12.69,73232.5,-11.67,-37.09,-39.29,0,*5D
1487369088.65,2113,12.75,73234.3,-11.67,-37.27,-39.47,0,*58
1487369089.92,2114,12.75,73238.5,-11.67,-37.09,-39.09,0,*59
1487369091.2,2115,12.75,73236.3,-11.67,-36.79,-39.03,0,*54
1487369092.48,2116,12.75,73238.0,-11.67,-36.79,-38.91,0,*5D
1487369093.74,2117,12.69,73232.3,-11.67,-36.79,-38.85,0,*59
1487369094.99,2118,12.75,73236.0,-11.65,-36.79,-39.03,0,*5B
1487369096.22,2119,12.75,73234.5,-11.65,-36.97,-39.23,0,*58
1487369097.42,2120,12.75,73234.8,-11.65,-37.33,-39.47,0,*5F
1487369098.63,2121,12.75,73238.3,-11.65,-37.27,-39.47,0,*5B
1487369099.86,2122,12.75,73238.5,-11.65,-37.27,-39.41,0,*5E
1487369101.09,2123,12.75,73236.5,-11.67,-37.27,-39.47,0,*5B
1487369102.32,2124,12.75,73234.8,-11.65,-37.27,-39.41,0,*58
1487369103.55,2125,12.69,73232.0,-11.65,-37.45,-39.59,0,*54
1487369104.79,2126,12.75,73236.5,-11.65,-37.51,-39.65,0,*5D
1487369106.05,2127,12.75,73236.0,-11.67,-37.51,-39.65,0,*5E
1487369107.31,2128,12.75,73238.0,-11.67,-37.33,-39.59,0,*5A
1487369108.55,2129,12.75,73238.5,-11.65,-37.45,-39.59,0,*58
1487369109.8,2130,12.75,73238.3,-11.67,-37.15,-39.41,0,*5E
1487369111.06,2131,12.75,73238.5,-11.65,-37.09,-39.23,0,*54
1487369112.26,2132,12.69,73236.0,-11.65,-37.27,-39.47,0,*59
1487369113.52,2133,12.75,73240.3,-11.65,-37.09,-39.29,0,*5C
1487369114.74,2134,12.69,73238.8,-11.65,-36.97,-39.09,0,*5F
1487369115.97,2135,12.69,73238.0,-11.65,-37.27,-39.41,0,*58
1487369117.2,2136,12.75,73236.5,-11.65,-37.51,-39.65,0,*5C
1487369118.43,2137,12.75,73236.8,-11.65,-37.27,-39.41,0,*5A
1487369119.69,2138,12.75,73236.5,-11.65,-37.09,-39.23,0,*5D
1487369120.93,2139,12.75,73238.0,-11.65,-37.27,-39.29,0,*5A
1487369122.16,2140,12.69,73238.5,-11.65,-37.15,-39.23,0,*5F
1487369123.39,2141,12.75,73240.0,-11.65,-37.15,-39.23,0,*5E
1487369124.62,2142,12.75,73242.5,-11.65,-37.15,-39.29,0,*57
1487369125.88,2143,12.75,73238.5,-11.67,-37.27,-39.29,0,*55
1487369127.08,2144,12.69,73234.0,-11.65,-37.45,-39.47,0,*5C
1487369128.31,2145,12.75,73240.5,-11.65,-37.27,-39.41,0,*5F
1487369129.51,2146,12.75,73240.5,-11.65,-37.45,-39.47,0,*5E
1487369130.75,2147,12.75,73240.8,-11.65,-37.69,-39.65,0,*51
1487369132.01,2148,12.75,73236.5,-11.65,-37.51,-39.59,0,*5A
1487369133.24,2149,12.75,73242.0,-11.65,-37.33,-39.41,0,*56
1487369134.47,2150,12.75,73236.5,-11.65,-37.27,-39.29,0,*55
1487369135.71,2151,12.75,73236.8,-11.67,-37.45,-39.65,0,*5A
1487369136.99,2152,12.69,73234.3,-11.67,-37.63,-39.59,0,*52
1487369138.22,2153,12.69,73234.8,-11.65,-37.63,-39.47,0,*5E
1487369139.46,2154,12.75,73236.3,-11.65,-37.63,-39.65,0,*59
1487369140.7,2155,12.75,73238.8,-11.65,-37.69,-39.65,0,*52
1487369141.91,2156,12.69,73238.8,-11.65,-37.87,-39.65,0,*51
1487369143.15,2157,12.75,73240.5,-11.65,-37.87,-39.79,0,*5D
1487369144.42,2158,12.75,73240.8,-11.65,-37.93,-39.79,0,*57
1487369145.67,2159,12.69,73238.3,-11.67,-37.63,-39.47,0,*56
1487369146.9,2160,12.75,73236.5,-11.65,-37.45,-39.41,0,*5C
1487369148.15,2161,12.75,73238.5,-11.67,-37.33,-39.29,0,*50
1487369149.39,2162,12.69,73234.8,-11.65,-37.63,-39.65,0,*5C
1487369150.63,2163,12.75,73238.5,-11.65,-37.69,-39.65,0,*57
1487369151.86,2164,12.75,73238.3,-11.65,-37.75,-39.79,0,*50
1487369153.12,2165,12.69,73236.5,-11.67,-37.75,-39.79,0,*53
1487369154.39,2166,12.75,73238.3,-11.67,-37.69,-39.65,0,*50
1487369155.67,2167,12.75,73238.0,-11.67,-37.69,-39.59,0,*5E
1487369156.91,2168,12.75,73236.8,-11.67,-37.75,-39.65,0,*53
1487369158.14,2169,12.75,73238.3,-11.67,-37.75,-39.65,0,*52
1487369159.38,2170,12.75,73236.0,-11.67,-37.75,-39.65,0,*5A
1487369160.66,2171,12.75,73240.0,-11.67,-37.63,-39.41,0,*5A
1487369161.91,2172,12.75,73236.8,-11.67,-37.45,-39.41,0,*5D
1487369163.17,2173,12.69,73234.8,-11.67,-37.45,-39.23,0,*58
1487369164.44,2174,12.75,73238.0,-11.67,-37.63,-39.41,0,*5F
1487369165.73,2175,12.75,73238.5,-11.67,-37.69,-39.59,0,*5D
1487369167.02,2176,12.75,73238.8,-11.67,-37.69,-39.59,0,*5E
1487369168.26,2177,12.75,73236.5,-11.69,-37.69,-39.65,0,*5E
1487369169.5,2178,12.75,73238.3,-11.69,-37.81,-39.65,0,*57
1487369170.76,2179,12.75,73240.0,-11.69,-37.81,-39.53,0,*53
1487369172.0,2180,12.69,73238.8,-11.71,-37.57,-39.35,0,*57
1487369173.22,2181,12.69,73240.0,-11.69,-37.51,-39.35,0,*59
1487369174.49,2182,12.75,73240.5,-11.71,-37.33,-39.15,0,*55
1487369175.7,2183,12.75,73240.3,-11.69,-37.15,-38.97,0,*52
1487369176.9,2184,12.69,73236.0,-11.69,-37.33,-38.97,0,*51
1487369178.14,2185,12.75,73238.0,-11.69,-37.15,-38.91,0,*52
1487369179.4,2186,12.75,73238.0,-11.67,-37.09,-38.85,0,*57
1487369180.66,2187,12.75,73240.3,-11.65,-36.91,-38.67,0,*58
1487369181.93,2188,12.75,73236.3,-11.67,-36.97,-38.79,0,*5C
1487369183.16,2189,12.69,73238.3,-11.65,-37.15,-38.79,0,*54
1487369184.37,2190,12.69,73234.3,-11.65,-37.15,-38.85,0,*5F
1487369185.58,2191,12.75,73238.0,-11.65,-37.33,-39.09,0,*5F
1487369186.84,2192,12.69,73234.8,-11.65,-37.63,-39.29,0,*5B
1487369188.08,2193,12.75,73232.0,-11.65,-37.75,-39.59,0,*5A
1487369189.36,2194,12.75,73236.8,-11.67,-37.69,-39.29,0,*55
1487369190.64,2195,12.75,73236.8,-11.67,-37.51,-39.29,0,*5F
1487369191.87,2196,12.69,73232.8,-11.65,-37.27,-39.03,0,*57
1487369193.1,2197,12.69,73236.0,-11.65,-37.45,-39.03,0,*52
1487369194.33,2198,12.75,73236.8,-11.65,-37.45,-39.03,0,*5D
1487369195.57,2199,12.75,73236.8,-11.65,-37.51,-39.09,0,*53
1487369196.82,2200,12.75,73236.0,-11.65,-37.51,-39.23,0,*58
1487369198.03,2201,12.75,73236.3,-11.65,-37.45,-38.85,0,*51
1487369199.26,2202,12.75,73236.3,-11.61,-37.45,-39.03,0,*59
1487369200.49,2203,12.69,73234.5,-11.61,-37.87,-39.41,0,*50
1487369201.74,2204,12.75,73238.8,-11.61,-37.99,-39.53,0,*5B
1487369202.97,2205,12.75,73238.0,-11.61,-37.69,-39.35,0,*55
1487369204.22,2206,12.75,73238.5,-11.61,-37.99,-39.53,0,*59
1487369205.43,2207,12.69,73234.5,-11.65,-38.05,-39.65,0,*53
1487369206.69,2208,12.75,73238.5,-11.65,-37.93,-39.59,0,*53
1487369207.92,2209,12.69,73232.8,-11.65,-37.75,-39.41,0,*53
1487369209.15,2210,12.75,73238.8,-11.65,-37.75,-39.29,0,*55
1487369210.41,2211,12.75,73236.8,-11.65,-37.69,-39.29,0,*59
1487369211.64,2212,12.75,73236.5,-11.65,-37.93,-39.47,0,*57
1487369212.9,2213,12.75,73238.8,-11.67,-37.51,-39.09,0,*50
1487369214.16,2214,12.69,73234.8,-11.65,-37.63,-39.03,0,*5E
1487369215.42,2215,12.75,73236.3,-11.65,-37.51,-38.91,0,*54
1487369216.67,2216,12.75,73236.3,-11.65,-37.51,-39.03,0,*5D
1487369217.88,2217,12.75,73238.8,-11.65,-37.45,-38.85,0,*56
1487369219.12,2218,12.69,73236.5,-11.65,-37.33,-38.79,0,*5B
1487369220.35,2219,12.69,73234.5,-11.65,-37.45,-38.91,0,*5D
1487369221.55,2220,12.75,73238.8,-11.61,-37.27,-38.73,0,*5B
1487369222.76,2221,12.69,73238.3,-11.61,-37.45,-38.97,0,*54
1487369223.96,2222,12.75,73242.0,-11.61,-37.57,-38.97,0,*54
1487369225.22,2223,12.69,73238.8,-11.59,-37.21,-38.73,0,*55
1487369226.45,2224,12.75,73236.8,-11.59,-37.57,-39.09,0,*5F
1487369227.66,2225,12.75,73236.5,-11.61,-37.87,-39.35,0,*57
1487369228.91,2226,12.75,73240.0,-11.61,-37.99,-39.41,0,*58
1487369230.17,2227,12.75,73238.3,-11.59,-37.63,-39.09,0,*5B
1487369231.4,2228,12.75,73240.5,-11.61,-37.39,-38.97,0,*56
1487369232.66,2229,12.75,73238.8,-11.59,-37.63,-39.09,0,*55
1487369233.9,2230,12.75,73240.3,-11.61,-37.39,-38.85,0,*5C
1487369235.15,2231,12.69,73236.0,-11.61,-37.63,-39.03,0,*5D
1487369236.41,2232,12.75,73240.5,-11.61,-37.81,-39.23,0,*50
1487369237.64,2233,12.75,73240.5,-11.61,-37.87,-39.41,0,*53
1487369238.87,2234,12.69,73240.0,-11.61,-37.57,-39.03,0,*5F
1487369240.15,2235,12.69,73242.8,-11.59,-37.51,-38.91,0,*59
1487369241.36,2236,12.75,73240.8,-11.61,-37.27,-38.73,0,*5C
1487369242.57,2237,12.69,73240.8,-11.61,-37.03,-38.55,0,*5F
1487369243.83,2238,12.75,73242.0,-11.59,-36.97,-38.49,0,*5A
1487369245.09,2239,12.69,73238.8,-11.59,-37.03,-38.49,0,*57
1487369246.3,2240,12.69,73236.5,-11.57,-37.15,-38.55,0,*5D
1487369247.57,2241,12.75,73242.5,-11.57,-37.21,-38.67,0,*5A
1487369248.79,2242,12.69,73242.0,-11.59,-37.33,-38.73,0,*51
1487369250.08,2243,12.69,73238.3,-11.59,-37.51,-38.79,0,*5E
1487369251.31,2244,12.69,73240.8,-11.57,-37.33,-38.67,0,*5C
1487369252.56,2245,12.75,73240.3,-11.57,-37.39,-38.79,0,*58
1487369253.77,2246,12.75,73242.3,-11.57,-37.57,-38.97,0,*53
1487369255.0,2247,12.69,73238.3,-11.57,-37.75,-39.15,0,*59
1487369256.22,2248,12.69,73238.0,-11.57,-37.75,-39.03,0,*51
1487369257.45,2249,12.69,73240.0,-11.57,-37.57,-38.91,0,*5A
1487369258.66,2250,12.69,73240.0,-11.57,-37.57,-38.97,0,*54
1487369259.91,2251,12.75,73242.3,-11.55,-37.57,-39.03,0,*5B
1487369261.14,2252,12.69,73238.0,-11.57,-37.63,-38.97,0,*51
1487369262.4,2253,12.69,73240.0,-11.57,-37.81,-39.29,0,*58
1487369263.65,2254,12.69,73238.8,-11.57,-37.93,-39.53,0,*51
1487369264.9,2255,12.69,73236.3,-11.57,-37.99,-39.53,0,*5A
1487369266.15,2256,12.69,73238.0,-11.57,-38.11,-39.53,0,*56
1487369267.38,2257,12.69,73236.8,-11.57,-38.11,-39.65,0,*52
1487369268.61,2258,12.75,73242.0,-11.57,-37.99,-39.35,0,*57
1487369269.87,2259,12.69,73236.3,-11.57,-37.81,-39.29,0,*52
1487369271.1,2260,12.69,73238.3,-11.57,-37.93,-39.47,0,*53
1487369272.33,2261,12.75,73238.5,-11.59,-37.75,-39.09,0,*5E
1487369273.56,2262,12.69,73236.5,-11.59,-37.75,-39.09,0,*5D
1487369274.77,2263,12.75,73236.8,-11.57,-37.75,-39.09,0,*52
1487369276.0,2264,12.69,73234.3,-11.57,-37.93,-39.35,0,*52
1487369277.28,2265,12.69,73234.8,-11.59,-37.93,-39.29,0,*50
1487369278.56,2266,12.69,73234.5,-11.59,-37.93,-39.29,0,*53
1487369279.81,2267,12.69,73234.0,-11.59,-37.99,-39.35,0,*55
1487369281.04,2268,12.75,73238.5,-11.57,-37.81,-39.35,0,*5D
1487369282.32,2269,12.69,73236.3,-11.59,-37.93,-39.29,0,*5C
1487369283.58,2270,12.69,73234.8,-11.59,-37.93,-39.09,0,*56
1487369284.85,2271,12.69,73236.8,-11.57,-37.81,-39.29,0,*58
1487369286.11,2272,12.69,73234.8,-11.55,-37.87,-39.23,0,*55
1487369287.33,2273,12.75,73236.3,-11.57,-37.99,-39.47,0,*5B
1487369288.58,2274,12.75,73238.0,-11.57,-38.11,-39.53,0,*56
1487369289.83,2275,12.69,73232.3,-11.57,-38.11,-39.53,0,*57
1487369291.08,2276,12.69,73234.0,-11.59,-38.17,-39.53,0,*5C
1487369292.36,2277,12.69,73232.5,-11.59,-37.99,-39.53,0,*54
1487369293.61,2278,12.69,73238.3,-11.59,-38.17,-39.53,0,*52
1487369294.85,2279,12.69,73236.8,-11.61,-38.17,-39.59,0,*52
1487369296.1,2280,12.69,73236.0,-11.59,-38.17,-39.53,0,*55